Location: Unspecified
(0.0000°N, 0.0000°E)
Time: 13:17:48
(UTC+00:00)

FORMOSAT 3E - Pass Details

Date: 22 May 2026
Orbit: 740 x 833 km, 72.0° (Epoch: 5 June)

Event Time Altitude Azimuth Distance (km) Brightness Sun altitude
Rises 18:29:01 0° 14° (NNE) 3,163 11.3 -7.6°
Reaches altitude 10° 18:32:02 10° 33° (NNE) 2,251 10.3 -8.3°
Maximum altitude 18:35:30 18° 76° (ENE) 1,758 9.4 -9.1°
Enters shadow 18:38:23 12° 113° (ESE) 2,131 9.6 -9.7°
